TimeEST,TemperatureF,Dew PointF,Humidity,Sea Level PressureIn,VisibilityMPH,Wind Direction,Wind SpeedMPH,Gust SpeedMPH,PrecipitationIn,Events,Conditions,WindDirDegrees,DateUTC
12:55 AM,34.9,31.8,89,30.30,10.0,NW,9.2,-,N/A,,Clear,320,2013-01-18 05:55:00
1:55 AM,34.5,31.3,88,30.34,10.0,NW,9.2,-,N/A,,Clear,320,2013-01-18 06:55:00
2:55 AM,34.0,30.2,86,30.35,10.0,NW,9.2,-,N/A,,Clear,310,2013-01-18 07:55:00
3:55 AM,33.8,29.1,83,30.36,10.0,NNW,10.4,19.6,N/A,,Clear,330,2013-01-18 08:55:00
4:55 AM,33.4,28.4,82,30.37,10.0,NW,9.2,-,N/A,,Clear,320,2013-01-18 09:55:00
5:55 AM,33.3,27.9,81,30.40,10.0,NNW,5.8,-,N/A,,Clear,330,2013-01-18 10:55:00
6:55 AM,32.9,28.0,82,30.41,10.0,NNW,4.6,-,N/A,,Clear,340,2013-01-18 11:55:00
7:55 AM,33.1,27.9,81,30.43,10.0,Variable,4.6,-,N/A,,Clear,0,2013-01-18 12:55:00
8:55 AM,36.1,28.9,75,30.47,10.0,NNW,5.8,-,N/A,,Clear,330,2013-01-18 13:55:00
9:55 AM,40.1,30.7,69,30.50,10.0,NW,5.8,-,N/A,,Clear,320,2013-01-18 14:55:00
10:55 AM,42.4,30.4,62,30.52,10.0,Variable,3.5,-,N/A,,Clear,0,2013-01-18 15:55:00
11:55 AM,46.2,29.5,52,30.51,10.0,Calm,Calm,-,N/A,,Clear,0,2013-01-18 16:55:00
12:55 PM,49.6,28.2,44,30.48,10.0,Variable,4.6,-,N/A,,Clear,0,2013-01-18 17:55:00
1:55 PM,51.1,24.4,35,30.47,10.0,Calm,Calm,-,N/A,,Clear,0,2013-01-18 18:55:00
2:55 PM,53.1,24.8,33,30.46,10.0,WSW,4.6,-,N/A,,Clear,250,2013-01-18 19:55:00
3:55 PM,53.4,26.2,35,30.46,10.0,WSW,3.5,-,N/A,,Clear,250,2013-01-18 20:55:00
4:55 PM,52.9,26.1,35,30.45,10.0,Calm,Calm,-,N/A,,Clear,0,2013-01-18 21:55:00
5:55 PM,50.7,27.0,40,30.45,10.0,Calm,Calm,-,N/A,,Clear,0,2013-01-18 22:55:00
6:55 PM,44.4,32.7,64,30.47,10.0,Calm,Calm,-,N/A,,Clear,0,2013-01-18 23:55:00
7:55 PM,40.1,33.4,77,30.48,10.0,Calm,Calm,-,N/A,,Clear,0,2013-01-19 00:55:00
8:55 PM,37.6,32.9,83,30.48,10.0,Calm,Calm,-,N/A,,Clear,0,2013-01-19 01:55:00
9:55 PM,36.3,33.1,88,30.49,10.0,Calm,Calm,-,N/A,,Clear,0,2013-01-19 02:55:00
10:55 PM,34.7,32.9,93,30.48,10.0,Calm,Calm,-,N/A,,Clear,0,2013-01-19 03:55:00
11:55 PM,34.3,32.4,92,30.46,10.0,Calm,Calm,-,N/A,,Clear,0,2013-01-19 04:55:00